Location: Eurasberg
(48.3353°N, 11.0839°E)
Time: 16:52:56
(UTC+00:00)

Cosmos 1862 Rocket - Visible Passes

Search period start: 11 April 2026 00:00
Search period end: 21 April 2026 00:00
Orbit: 598 x 625 km, 82.5° (Epoch: 11 April)

Date Brightness Start Highest point End Pass type
(mag) Time Alt. Az. Time Alt. Az. Time Alt. Az.
11 Apr 3.6 18:27:55 10° N 18:32:24 88° E 18:36:48 10° S visible
11 Apr 6.8 20:08:30 10° WNW 20:09:20 10° W 20:10:09 10° W visible
12 Apr 4.4 18:42:58 10° NNW 18:47:19 54° W 18:51:36 10° S visible
13 Apr 5.5 18:58:11 10° NNW 19:02:09 32° W 19:06:04 10° SSW visible
14 Apr 6.4 19:13:40 10° NW 19:16:54 20° W 19:20:07 10° SW visible
15 Apr 6.7 19:29:47 10° WNW 19:31:35 12° W 19:33:24 10° WSW visible
18 Apr 6.3 18:35:38 10° NW 18:39:07 23° W 18:42:35 10° SW visible
19 Apr 6.7 18:51:27 10° NW 18:53:49 14° W 18:56:11 10° WSW visible
